�������l�o���
Date,Time,MP-1(��Sv/h),MP-2(��Sv/h),MP-3(��Sv/h),MP-4(��Sv/h),MP-5(��Sv/h),MP-6(��Sv/h),MP-7(��Sv/h),MP-8(��Sv/h),����,����(m/s),���J
2017/07/29,00:00,0.976,1.537,1.021,1.824,1.272,0.526,0.957,0.880,�k��,2.5,�L
2017/07/29,00:10,0.977,1.535,1.020,1.825,1.273,0.525,0.954,0.883,�k��,2.5,�L
2017/07/29,00:20,0.977,1.537,1.020,1.825,1.270,0.526,0.958,0.883,�k��,1.5,�L
2017/07/29,00:30,0.979,1.537,1.023,1.822,1.272,0.526,0.955,0.880,�k��,0.8,�L
2017/07/29,00:40,0.979,1.537,1.020,1.821,1.271,0.527,0.956,0.882,�k��,1.7,�L
2017/07/29,00:50,0.981,1.535,1.021,1.824,1.272,0.526,0.956,0.883,���k��,1.5,�L
2017/07/29,01:00,0.979,1.537,1.022,1.822,1.271,0.527,0.956,0.880,���k��,2.0,��
2017/07/29,01:10,0.979,1.535,1.021,1.822,1.271,0.527,0.957,0.881,���쐼,2.0,��
2017/07/29,01:20,0.979,1.536,1.018,1.824,1.272,0.527,0.955,0.882,�쐼,2.3,��
2017/07/29,01:30,0.979,1.537,1.020,1.826,1.271,0.526,0.957,0.883,�쐼,1.5,��
2017/07/29,01:40,0.980,1.539,1.022,1.823,1.273,0.526,0.958,0.881,-,CALM,��
2017/07/29,01:50,0.981,1.536,1.021,1.824,1.272,0.526,0.957,0.881,���쐼,0.6,�L
2017/07/29,02:00,0.979,1.537,1.021,1.825,1.273,0.526,0.957,0.882,-,CALM,�L
2017/07/29,02:10,0.979,1.538,1.022,1.824,1.275,0.526,0.959,0.883,��,1.2,��
2017/07/29,02:20,0.980,1.537,1.022,1.827,1.272,0.527,0.957,0.883,�쐼,0.8,��
2017/07/29,02:30,0.977,1.537,1.020,1.825,1.271,0.527,0.956,0.882,��쐼,0.9,��
2017/07/29,02:40,0.978,1.536,1.022,1.826,1.271,0.527,0.956,0.884,�쐼,1.2,��
2017/07/29,02:50,0.979,1.536,1.020,1.823,1.271,0.527,0.958,0.883,��,1.7,��
2017/07/29,03:00,0.978,1.534,1.021,1.826,1.273,0.527,0.957,0.884,��쐼,2.0,�L
2017/07/29,03:10,0.977,1.536,1.020,1.825,1.271,0.527,0.956,0.883,��쐼,1.7,�L
2017/07/29,03:20,0.979,1.536,1.023,1.823,1.271,0.527,0.959,0.882,��,0.9,��
2017/07/29,03:30,0.977,1.538,1.019,1.827,1.272,0.525,0.958,0.881,�쓌,1.1,�L
2017/07/29,03:40,0.979,1.533,1.020,1.824,1.273,0.527,0.957,0.883,�쓌,0.9,�L
2017/07/29,03:50,0.978,1.533,1.018,1.826,1.270,0.525,0.955,0.883,��쐼,0.9,�L
2017/07/29,04:00,0.978,1.536,1.021,1.822,1.267,0.527,0.956,0.880,��쓌,0.9,�L
2017/07/29,04:10,0.976,1.535,1.019,1.823,1.269,0.527,0.957,0.883,�쓌,1.9,��
2017/07/29,04:20,0.973,1.536,1.020,1.825,1.271,0.524,0.954,0.882,�쓌,2.0,�L
2017/07/29,04:30,0.977,1.533,1.016,1.824,1.272,0.525,0.956,0.883,�쓌,1.2,�L
2017/07/29,04:40,0.976,1.532,1.018,1.824,1.270,0.524,0.956,0.881,�쓌,0.9,�L
2017/07/29,04:50,0.976,1.531,1.019,1.821,1.268,0.526,0.955,0.882,-,CALM,�L
2017/07/29,05:00,0.974,1.530,1.019,1.821,1.271,0.525,0.954,0.884,-,CALM,��
2017/07/29,05:10,0.977,1.533,1.018,1.825,1.268,0.523,0.953,0.881,-,CALM,��
2017/07/29,05:20,0.976,1.533,1.018,1.824,1.270,0.525,0.957,0.884,�k��,1.2,��
2017/07/29,05:30,0.974,1.532,1.017,1.824,1.269,0.525,0.955,0.881,�k��,1.2,��
2017/07/29,05:40,0.975,1.534,1.017,1.821,1.268,0.525,0.955,0.881,�k��,1.2,��
2017/07/29,05:50,0.977,1.532,1.020,1.824,1.267,0.524,0.957,0.882,�k��,0.8,��
2017/07/29,06:00,0.975,1.532,1.017,1.823,1.269,0.525,0.956,0.882,�k��,1.2,��
2017/07/29,06:10,0.975,1.533,1.017,1.822,1.269,0.525,0.957,0.881,�k�k��,0.9,��
2017/07/29,06:20,0.973,1.531,1.019,1.823,1.270,0.525,0.955,0.881,�k�k��,1.2,��
2017/07/29,06:30,0.972,1.534,1.021,1.823,1.270,0.526,0.954,0.881,�k�k��,2.3,��
2017/07/29,06:40,0.975,1.534,1.019,1.822,1.269,0.524,0.953,0.882,�k�k��,2.6,��
2017/07/29,06:50,0.979,1.531,1.018,1.822,1.271,0.525,0.956,0.882,�k�k��,2.6,��
2017/07/29,07:00,0.976,1.535,1.020,1.824,1.267,0.525,0.955,0.884,�k�k��,2.3,��
2017/07/29,07:10,0.974,1.534,1.020,1.822,1.270,0.527,0.955,0.881,�k�k��,2.2,��
2017/07/29,07:20,0.977,1.532,1.021,1.825,1.269,0.525,0.954,0.882,�k�k��,2.0,��
2017/07/29,07:30,0.977,1.535,1.018,1.825,1.268,0.524,0.957,0.881,�k,2.0,��
2017/07/29,07:40,0.975,1.533,1.018,1.823,1.269,0.522,0.955,0.881,�k,2.0,��
2017/07/29,07:50,0.975,1.532,1.019,1.824,1.269,0.524,0.956,0.882,�k,1.7,��
2017/07/29,08:00,0.975,1.531,1.018,1.827,1.269,0.523,0.955,0.881,�k�k��,1.7,��
2017/07/29,08:10,0.976,1.531,1.019,1.826,1.270,0.523,0.953,0.881,�k,1.7,��
2017/07/29,08:20,0.976,1.530,1.019,1.823,1.268,0.523,0.954,0.882,�k�k��,1.7,��
2017/07/29,08:30,0.976,1.529,1.015,1.820,1.270,0.524,0.954,0.880,�k�k��,1.5,��
2017/07/29,08:40,0.976,1.533,1.016,1.821,1.268,0.523,0.955,0.879,�k��,2.0,��
2017/07/29,08:50,0.975,1.531,1.017,1.822,1.269,0.523,0.952,0.880,�k,2.3,��
2017/07/29,09:00,0.977,1.532,1.017,1.823,1.270,0.521,0.955,0.881,�k�k��,1.9,��
2017/07/29,09:10,0.976,1.533,1.015,1.826,1.267,0.522,0.956,0.881,�k,2.3,��
2017/07/29,09:20,0.977,1.531,1.016,1.821,1.273,0.522,0.954,0.879,�k,2.5,��
2017/07/29,09:30,0.976,1.530,1.019,1.823,1.269,0.524,0.956,0.880,�k,3.5,��
2017/07/29,09:40,0.975,1.530,1.016,1.822,1.270,0.522,0.955,0.878,�k�k��,3.2,��
2017/07/29,09:50,0.976,1.534,1.018,1.824,1.269,0.520,0.955,0.879,�k�k��,3.7,��
2017/07/29,10:00,0.976,1.533,1.015,1.821,1.271,0.522,0.954,0.878,�k�k��,3.5,��
2017/07/29,10:10,0.975,1.534,1.018,1.825,1.272,0.522,0.953,0.878,�k,4.1,��
2017/07/29,10:20,0.977,1.533,1.016,1.823,1.275,0.523,0.955,0.877,�k�k��,3.6,��
2017/07/29,10:30,0.974,1.534,1.017,1.826,1.271,0.523,0.955,0.880,�k,3.8,��
2017/07/29,10:40,0.975,1.534,1.017,1.824,1.270,0.522,0.955,0.877,�k,3.9,��
2017/07/29,10:50,0.974,1.533,1.019,1.826,1.271,0.522,0.957,0.879,�k,3.8,��
2017/07/29,11:00,0.978,1.530,1.015,1.825,1.269,0.522,0.957,0.878,�k,3.4,�L
2017/07/29,11:10,0.977,1.533,1.019,1.824,1.272,0.524,0.954,0.878,�k�k��,4.4,�L
2017/07/29,11:20,0.977,1.534,1.016,1.823,1.274,0.522,0.954,0.878,�k�k��,3.7,��
2017/07/29,11:30,0.979,1.533,1.018,1.825,1.269,0.523,0.955,0.879,�k�k��,4.4,��
2017/07/29,11:40,0.976,1.534,1.020,1.826,1.268,0.523,0.955,0.878,�k�k��,3.8,��
2017/07/29,11:50,0.975,1.532,1.020,1.826,1.272,0.522,0.954,0.881,�k�k��,3.8,��
2017/07/29,12:00,0.977,1.533,1.019,1.823,1.271,0.523,0.955,0.878,�k�k��,4.2,�L
2017/07/29,12:10,0.976,1.536,1.018,1.825,1.271,0.522,0.954,0.881,�k�k��,4.5,�L
2017/07/29,12:20,0.976,1.533,1.019,1.827,1.273,0.522,0.953,0.880,�k�k��,4.4,�L
2017/07/29,12:30,0.976,1.533,1.018,1.827,1.273,0.522,0.953,0.877,�k�k��,4.2,�L
2017/07/29,12:40,0.975,1.534,1.019,1.826,1.274,0.523,0.954,0.879,�k�k��,4.9,�L
2017/07/29,12:50,0.974,1.536,1.018,1.826,1.273,0.523,0.955,0.880,�k�k��,4.7,�L
2017/07/29,13:00,0.977,1.536,1.019,1.827,1.273,0.523,0.955,0.878,�k�k��,4.3,�L
2017/07/29,13:10,0.976,1.538,1.020,1.824,1.273,0.523,0.956,0.880,�k�k��,4.7,�L
2017/07/29,13:20,0.977,1.535,1.019,1.827,1.274,0.522,0.955,0.881,�k,4.2,�L
2017/07/29,13:30,0.976,1.538,1.019,1.825,1.273,0.525,0.957,0.879,�k�k��,4.0,�L
2017/07/29,13:40,0.976,1.533,1.019,1.825,1.272,0.525,0.956,0.881,�k�k��,4.5,�L
2017/07/29,13:50,0.977,1.535,1.020,1.826,1.272,0.524,0.955,0.879,�k�k��,4.6,�L
2017/07/29,14:00,0.975,1.533,1.020,1.826,1.274,0.524,0.955,0.879,�k�k��,4.9,�L
2017/07/29,14:10,0.976,1.533,1.021,1.828,1.271,0.523,0.955,0.879,�k�k��,4.2,�L
2017/07/29,14:20,0.975,1.535,1.019,1.825,1.270,0.524,0.955,0.882,�k,4.4,�L
2017/07/29,14:30,0.977,1.533,1.019,1.825,1.272,0.522,0.955,0.880,�k�k��,5.5,��
2017/07/29,14:40,0.974,1.530,1.021,1.824,1.272,0.523,0.954,0.881,�k�k��,5.1,��
2017/07/29,14:50,0.975,1.533,1.019,1.822,1.272,0.522,0.956,0.881,�k,4.5,�L
2017/07/29,15:00,0.974,1.534,1.019,1.826,1.274,0.522,0.955,0.880,�k�k��,4.5,�L
2017/07/29,15:10,0.974,1.530,1.018,1.823,1.269,0.522,0.955,0.880,�k�k��,4.1,�L
2017/07/29,15:20,0.974,1.533,1.016,1.825,1.269,0.523,0.956,0.879,�k�k��,4.4,�L
2017/07/29,15:30,0.975,1.533,1.017,1.824,1.269,0.522,0.954,0.881,�k�k��,5.6,�L
2017/07/29,15:40,0.971,1.534,1.018,1.824,1.269,0.522,0.953,0.880,�k,5.1,�L
2017/07/29,15:50,0.974,1.533,1.017,1.826,1.271,0.522,0.955,0.880,�k�k��,5.8,��
2017/07/29,16:00,0.973,1.533,1.016,1.823,1.273,0.523,0.953,0.880,�k�k��,4.4,��
2017/07/29,16:10,0.974,1.532,1.018,1.822,1.270,0.522,0.953,0.881,�k�k��,3.7,�L
2017/07/29,16:20,0.974,1.535,1.018,1.823,1.272,0.522,0.955,0.883,�k,4.6,�L
2017/07/29,16:30,0.974,1.535,1.017,1.823,1.270,0.520,0.954,0.880,�k,5.0,�L
2017/07/29,16:40,0.974,1.533,1.020,1.827,1.271,0.523,0.956,0.883,�k,5.4,�L
2017/07/29,16:50,0.975,1.537,1.018,1.824,1.268,0.522,0.953,0.881,�k,4.7,�L
2017/07/29,17:00,0.973,1.537,1.018,1.826,1.270,0.522,0.954,0.882,�k,4.6,�L
2017/07/29,17:10,0.976,1.534,1.019,1.829,1.272,0.523,0.957,0.882,�k,5.1,�L
2017/07/29,17:20,0.971,1.532,1.018,1.826,1.270,0.522,0.954,0.883,�k,5.1,�L
2017/07/29,17:30,0.973,1.535,1.016,1.826,1.269,0.522,0.956,0.882,�k�k��,4.1,�L
2017/07/29,17:40,0.974,1.535,1.018,1.826,1.271,0.523,0.954,0.883,�k�k��,5.4,�L
2017/07/29,17:50,0.971,1.530,1.017,1.822,1.270,0.523,0.954,0.883,�k�k��,5.1,�L
2017/07/29,18:00,0.970,1.523,1.014,1.821,1.263,0.522,0.953,0.882,�k�k��,5.7,�L
2017/07/29,18:10,0.967,1.519,1.011,1.817,1.263,0.524,0.952,0.880,�k�k��,5.1,�L
2017/07/29,18:20,0.966,1.509,1.010,1.808,1.255,0.524,0.951,0.880,�k�k��,4.8,�L
2017/07/29,18:30,0.961,1.503,1.006,1.802,1.246,0.523,0.947,0.876,�k�k��,4.4,�L
2017/07/29,18:40,0.960,1.496,1.004,1.793,1.244,0.522,0.946,0.873,�k,4.4,�L
2017/07/29,18:50,0.956,1.494,1.005,1.791,1.242,0.522,0.946,0.873,�k�k��,4.9,�L
2017/07/29,19:00,0.957,1.491,1.001,1.788,1.240,0.522,0.945,0.875,�k�k��,4.6,�L
2017/07/29,19:10,0.954,1.491,0.999,1.788,1.237,0.520,0.944,0.872,�k,4.4,�L
2017/07/29,19:20,0.954,1.491,0.998,1.786,1.237,0.522,0.945,0.872,�k�k��,4.0,�L
2017/07/29,19:30,0.950,1.489,0.998,1.783,1.236,0.521,0.942,0.873,�k�k��,3.7,�L
2017/07/29,19:40,0.949,1.483,0.995,1.778,1.231,0.520,0.940,0.870,�k�k��,3.2,�L
2017/07/29,19:50,0.949,1.480,0.994,1.773,1.228,0.520,0.939,0.867,�k�k��,3.2,�L
2017/07/29,20:00,0.946,1.481,0.992,1.774,1.229,0.520,0.939,0.869,�k�k��,3.8,�L
2017/07/29,20:10,0.945,1.482,0.995,1.774,1.230,0.518,0.941,0.868,�k�k��,3.7,�L
2017/07/29,20:20,0.945,1.480,0.992,1.771,1.230,0.517,0.941,0.869,�k�k��,3.6,�L
2017/07/29,20:30,0.944,1.476,0.990,1.768,1.228,0.518,0.938,0.869,�k,2.8,�L
2017/07/29,20:40,0.945,1.474,0.990,1.768,1.224,0.516,0.939,0.868,�k�k��,3.3,�L
2017/07/29,20:50,0.942,1.472,0.987,1.768,1.224,0.518,0.937,0.865,�k�k��,3.9,�L
2017/07/29,21:00,0.942,1.471,0.986,1.763,1.223,0.516,0.937,0.867,�k�k��,4.4,�L
2017/07/29,21:10,0.940,1.469,0.985,1.761,1.219,0.516,0.937,0.866,�k�k��,4.6,�L
2017/07/29,21:20,0.940,1.469,0.987,1.761,1.222,0.514,0.936,0.867,�k�k��,5.1,�L
2017/07/29,21:30,0.939,1.471,0.986,1.760,1.220,0.514,0.937,0.867,�k�k��,6.0,�L
2017/07/29,21:40,0.939,1.466,0.985,1.757,1.221,0.515,0.936,0.864,�k�k��,4.4,�L
2017/07/29,21:50,0.937,1.462,0.983,1.753,1.215,0.512,0.933,0.865,�k�k��,5.4,�L
2017/07/29,22:00,0.936,1.461,0.983,1.749,1.213,0.515,0.934,0.865,�k�k��,5.4,�L
2017/07/29,22:10,0.934,1.463,0.980,1.751,1.214,0.514,0.933,0.863,�k�k��,5.4,�L
2017/07/29,22:20,0.934,1.464,0.979,1.750,1.215,0.515,0.935,0.864,�k�k��,4.7,�L
2017/07/29,22:30,0.933,1.463,0.980,1.752,1.217,0.513,0.936,0.864,�k,4.6,�L
2017/07/29,22:40,0.934,1.460,0.979,1.753,1.215,0.514,0.933,0.864,�k,5.0,�L
2017/07/29,22:50,0.932,1.460,0.980,1.752,1.213,0.512,0.932,0.863,�k,4.1,�L
2017/07/29,23:00,0.934,1.459,0.978,1.752,1.211,0.511,0.932,0.864,�k,3.9,�L
2017/07/29,23:10,0.935,1.461,0.980,1.753,1.214,0.511,0.933,0.863,�k,3.6,�L
2017/07/29,23:20,0.935,1.460,0.979,1.752,1.212,0.513,0.932,0.864,�k,3.5,�L
2017/07/29,23:30,0.933,1.459,0.980,1.757,1.213,0.512,0.932,0.861,�k�k��,4.3,�L
2017/07/29,23:40,0.935,1.462,0.978,1.752,1.214,0.513,0.930,0.864,�k�k��,4.1,�L
2017/07/29,23:50,0.933,1.460,0.978,1.752,1.213,0.513,0.931,0.863,�k,5.9,�L
